ATLAS 5 CENTAUR DEB, 49358

Orbit data source: Space-Track

ATLAS 5 CENTAUR DEB, 49358 is space debris in HEO originally from a launch on Wed, 17 Oct 2018 UTC launched from the Air Force Eastern Test Range (AFETR). Debris objects in space refer to the collection of defunct objects orbiting the Earth. Examples of debris include non-operational satellites, rocket bodies, and fragments generated from explosions, collisions, or faulty payload assembly.

Loading next visibility...
Identifier
49358, 2018-079FK
Orbit
HEO
Country
Flag of USUS
Related business
Flag of USUnited Launch Alliance/Lockheed Martin (US)
Manufacturer
ULA Decatur
Mission
Spacecraft
Bus & Motor
Unknown
Mass
Unknown
Launch date (UTC)
2018-10-17 (7 years ago)
Launch vehicle
Unknown
Launch site
Air Force Eastern Test Range (AFETR)
Object type
Payload
Rocket body
Debris
Shape & HBR
Unknown shape, 1.1 m
Radar Cross Section
Medium (>0.1 m² and <1 m²)

Expand to show TLE details & history
Last TLE update: 3 days ago

TLE from 3 days ago
0 ATLAS 5 CENTAUR DEB
1 49358U 18079FK  25299.36696989 -.00000122  00000-0  00000-0 0  9993
2 49358  13.1101  46.9338 4770066 294.9824  23.5502  1.83756116 27924
Epoch: 2025-10-26T08:48Z
TLE epoch observation values (Epoch: 2025-10-26T08:48:26.198Z)
Latitude
0.00001°
Longitude
-120.22023°
Altitude
11,715.145 km
Speed
5.468 km/s
True Right ascension
03h 07m 29s
True Declination
0° 00' 00"
Sunlit
Object was in full shadow at epoch
Visualization orbit readout
Latitude
Unknown
Longitude
Unknown
Altitude
Unknown
Speed
Unknown
Apparent Right ascension
Unknown
Apparent Declination
Unknown
Sunlit
N/A
Visualization observer readout
Local Sidereal Time
20:19:25
Azimuth
Unknown
Elevation
Unknown
Doppler factor
Unknown
Orbital elements
Apogee altitude
35,211.916 km
Perigee altitude
8,348.488 km
Semi-major axis
28,158.339 km
Eccentricity
0.47701
Inclination
13.1101°
RAAN
46.9338°
Arg. of periapsis
294.9824°
True anomaly
65.30859°
Mean anomaly
23.5502°
Eccentric anomaly
41.74853°
Mean motion
0.45934 °/min
Orbital period
783.74 mins
BSTAR
0
Loading maneuver chart data...
Computing Atmospheric mass density...

Documentation

Showing up to 5 results
|